Zurück zum Katalog

METEOR 1-17 DEB

AktivPO
NORAD 57539·DEBRIS·🇷🇺 Russia

Gestartet Apr 24, 1974 von Plesetsk Cosmodrome

Loading…

Nächste Überflüge (nächste 24 Stunden)

TLE

AktuellSource: Space-Track

Epoche: Sep 12, 2026, 13:35 UTC

1 57539U 74025E   26255.56644539  .00002273  00000-0  10692-2 0  9993
2 57539  81.2090 201.0805 0008055  60.0135 300.1840 14.19704108162561

Verfolge METEOR 1-17 DEB in Echtzeit mit AllMySat

Download on the App Store